AirNav   Air Wisconsin Up To $57,000 Bonus
 
 389 users online  

KSXS Shell Army Heliport
Fort Rucker, Alabama, USA

GOING TO FORT RUCKER?


FAA INFORMATION EFFECTIVE 12 SEPTEMBER 2019

Location

FAA Identifier: SXS
Lat/Long: 31-21-45.6100N 085-50-57.7800W
31-21.760167N 085-50.963000W
31.3626694,-85.8493833
(estimated)
Elevation: 400 ft. / 122 m (estimated)
Variation: 01W (1985)
Time zone: UTC -5 (UTC -6 during Standard Time)
Zip code: 36330

Heliport Operations

Heliport use: Private use. Permission required prior to landing
Activation date: 02/1987
Control tower: yes
ARTCC: JACKSONVILLE CENTER
FSS: ANNISTON FLIGHT SERVICE STATION
NOTAMs facility: OZR (NOTAM-D service available)
Attendance: UNATNDD
FOR OFFICIAL USE ONLY - PPR/ BASE OPN V558-5434.
Segmented circle: no

Heliport Communications

CTAF: 139.125
ATIS: 376.5
SHELL AHP GROUND: 142.425 310.6 [1230-0600Z++(DT 1130-0500Z++)MON-FRI EXC HOL]
SHELL AHP TOWER: 139.125 244.5 [1230-0600Z++(DT 1130-0500Z++)MON-FRI EXC HOL]
CAIRNS APPROACH: 133.45
CAIRNS DEPARTURE: 133.45
WX AWOS-3PT at EDN (5 nm SW): 118.9 (334-347-3524)
  • APCH/DEP SVC PRVDD BY JACKSONVILLE ARTCC ON FREQS 134.3/353.5 (DOTHAN RCAG) WHEN CAIRNS APCH/DEP CLSD.

Nearby radio navigation aids

VOR radial/distance  VOR name  Freq  Var
EDNr038/(4.8)ENTERPRISE VOR116.6003W
OZRr315/8.5CAIRNS VOR/DME111.2003W
HEYr269/(10.1)HANCHEY VOR110.6003W
RRSr280/21.9WIREGRASS VORTAC111.6002E

 
NDB name  Hdg/Dist  Freq  Var  ID
LOWE274/5.426903WLOR .-.. --- .-.
BOLL WEEVIL081/6.935203WBVG -... ...- --.
RUCKR351/8.421203WOZ --- --..
HANCHEY268/10.122103WHYE .... -.-- .
JUDD085/28.026402WJUY .--- ..- -.--
BLOOD159/31.036504WTOI - --- ..

Heliport Services

Oil available: 244.5

Runway Information

Helipad H1

Dimensions: 2000 x 60 ft. / 610 x 18 m
Surface: asphalt
Traffic pattern: leftleft

Helipad H3

Dimensions: 2000 x 60 ft. / 610 x 18 m
Surface: asphalt
Traffic pattern: leftleft

Helipad H4

Dimensions: 1620 x 75 ft. / 494 x 23 m
Surface: asphalt
Traffic pattern: leftleft

Helipad H2

Dimensions: 1300 x 60 ft. / 396 x 18 m
Surface: asphalt
Traffic pattern: leftleft

Helipad HA

Dimensions: 1300 x 50 ft. / 396 x 15 m
Surface: asphalt
Traffic pattern: leftleft

Helipad HB

Dimensions: 1300 x 50 ft. / 396 x 15 m
Surface: asphalt
Traffic pattern: leftleft

Helipad HC

Dimensions: 1300 x 50 ft. / 396 x 15 m
Surface: asphalt
Traffic pattern: leftleft

Helipad H5

Dimensions: 1000 x 60 ft. / 305 x 18 m
Surface: asphalt
Traffic pattern: leftleft

Heliport Ownership and Management from official FAA records

Ownership: U.S. Army
Owner: US ARMY ATCA - ASO
9325 GUNSTON ROAD
FT BELVOIR, VA 22060
Phone 205-255-2314

Additional Remarks

EXTENSIVE COPTER STU TNG IN PROGRESS.
RYS H-A/B &1 CLSD FOR BASE ACFT PARKING.
WHEN ATCT CLSD, FOR CD CTC JACKSONVILLE ARTCC AT 904-845-1592.

Instrument Procedures

There are no published instrument procedures at KSXS.

Some nearby airports with instrument procedures:

KEDN - Enterprise Municipal Airport (5 nm SW)
KLOR - Lowe Army Heliport (Fort Rucker) (5 nm E)
KOZR - Cairns Army Airfield (Fort Rucker) (9 nm SE)
KHEY - Hanchey Army Heliport (Fort Rucker) (10 nm E)
71J - Ozark-Blackwell Field Airport (12 nm E)
33J - Geneva Municipal Airport (19 nm S)
 
Loc | Ops | Rwys | IFR | FBO | Links
Com | Nav | Svcs | Stats | Notes
Area around KSXS (Shell Army Heliport)
 
Road maps at: MapQuest Bing Google
 
Aerial photo
WARNING: Photo may not be current or correct
Aerial photo of KSXS (Shell Army Heliport)
Do you have a better or more recent aerial photo of Shell Army Heliport that you would like to share? If so, please send us your photo.

 
Sectional chart

 
Airport distance calculator
Flying to Shell Army Heliport? Find the distance to fly.

From to KSXS

Sunrise and sunset
Times for 18-Sep-2019
 Local
(UTC-5)
 Zulu
(UTC)
Morning civil twilight06:0611:06
Sunrise06:3011:30
Sunset18:4523:45
Evening civil twilight19:0900:09

Current date and time
Zulu (UTC)  18-Sep-2019 09:55:31
Local (UTC-5)  18-Sep-2019 04:55:31
 
METAR
KSXS 180858Z AUTO 31005KT 10SM CLR 25/20 A2993 RMK AO2 SLP132 T02500198 56004
KEDN 
5nm SW 
180935Z AUTO 32003KT 10SM CLR 24/21 A2994 RMK AO2 T02430208
KLOR 
5nm E 
180858Z AUTO 00000KT 10SM CLR 22/20 A2993 RMK AO2 SLP116 T02160200 56003
KOZR 
8nm SE 
180856Z AUTO 27003KT 10SM CLR 23/20 A2993 RMK AO2 SLP134 T02340199 57004
KHEY 
10nm E 
180858Z AUTO 00000KT 10SM CLR 25/20 A2992 RMK AO2 SLP130 T02490204 56004
TAF
KOZR 
8nm SE 
180000Z 1800/1906 30006KT 9999 FEW050 QNH2990INS BECMG 1900/1901 07010KT 9999 SCT025 BKN060 QNH2994INS TX36/1819Z TN23/1812Z
NOTAMs
Click for the latest NOTAMs
NOTAMs are issued by the DoD/FAA and will open in a separate window not controlled by AirNav.

 

 
 

Would you like to see your business listed on this page?

 If your business provides an interesting product or service to pilots, flight crews, aircraft, or users of the Shell Army Heliport, you should consider listing it here.  To start the listing process, click on the button below
 
Add a business
 

Other Pages about Shell Army Heliport

Update a link
 
Copyright © AirNav, LLC. All rights reserved. Privacy Policy  Contact